Regional Weather Roundup
Issued by NWS

Home | Current Version | Previous Version | Graphics & Text | Print | Product List | Glossary On
Versions: 1 2 3 4 5 6 7 8 9 10 11 12 13 14 15 16 17 18 19 20 21 22 23 24 25 26 27 28 29 30 31 32 33 34 35 36 37 38 39 40 41 42 43 44 45 46 47 48 49 50
000
ASUS44 KMEG 222110
RWRTN
TENNESSEE HOURLY STATE WEATHER ROUNDUP
NATIONAL WEATHER SERVICE MEMPHIS TN
400 PM CDT MON SEP 22 2014

TNZ002-004-019-021-049-052-054-088>092-222200-
WEST TENNESSEE

CITY           SKY/WX    TMP DP  RH WIND       PRES   REMARKS
MEMPHIS INTL   MOSUNNY   77  49  37 NE15      30.16F
NWS MEMPHIS      N/A     75 N/A N/A MISG        N/A
JACKSON        SUNNY     77  50  38 N13G20    30.17F
DYERSBURG      SUNNY     73  46  38 N14G20    30.20S
UNION CITY     SUNNY     73  45  35 N9        30.19S
PARIS          SUNNY     72  43  35 NE14      30.20S
HUNTINGDON     SUNNY     73  44  35 VRB7      30.18S
LEXINGTON      SUNNY     73  48  40 NE7       30.16S
SAVANNAH       SUNNY     77  50  38 N12       30.16S
$$

TNZ008-025-027-028-033-062-065-066-222200-
NORTH MIDDLE TENNESSEE

CITY           SKY/WX    TMP DP  RH WIND       PRES   REMARKS
NASHVILLE      SUNNY     75  45  34 NE9       30.17S
DICKSON        SUNNY     72  43  35 VRB7      30.17F
PORTLAND       SUNNY     72  45  37 NE9       30.18F
CLARKSVILLE    SUNNY     74  45  35 NE12      30.18F
LEBANON        SUNNY     72  44  36 NE9       30.16S
SMYRNA         SUNNY     75  46  35 N13       30.17S
MURFREESBORO   SUNNY     73  45  36 N12       30.15F
COOKEVILLE     SUNNY     72  50  46 N5        30.16F
LIVINGSTON     SUNNY     67  46  46 N9        30.18F
GALLATIN       SUNNY     72  47  40 N10       30.19S
CROSSVILLE     SUNNY     69  45  41 N14       30.18S
$$

TNZ061-075-076-078-094-096-097-222200-
SOUTH MIDDLE TENNESSEE

CITY           SKY/WX    TMP DP  RH WIND       PRES   REMARKS
LEWISBURG      SUNNY     74  46  36 N10       30.15F
FAYETTEVILLE   SUNNY     72  45  37 N16       30.13F
TULLAHOMA      SUNNY     72  45  37 N13       30.15F
WINCHESTER     SUNNY     72  48  43 N7        30.14F
MCMINNVILLE    SUNNY     72  52  49 N12       30.15F
COLUMBIA       SUNNY     75  48  38 N10       30.15R
SHELBYVILLE    SUNNY     75  48  38 NE10      30.16S
$$

TNZ017-018-042-046-047-222200-
NORTHEAST TENNESSEE

CITY           SKY/WX    TMP DP  RH WIND       PRES   REMARKS
TRI CITIES     MOSUNNY   70  48  45 VRB5      30.14S
ELIZABETHTON   PTCLDY    66  48  52 N8        30.14S
$$

TNZ012-013-036-069-073-074-222200-
CENTRAL EAST TENNESSEE

CITY           SKY/WX    TMP DP  RH WIND       PRES   REMARKS
KNOXVILLE      MOSUNNY   73  46  38 VRB6      30.12S
OAK RIDGE      SUNNY     74  48  39 VRB6      30.15R
GATLINBURG     CLEAR     72  45  37 NE9       30.12F
MORRISTOWN     CLEAR     70  50  49 N8        30.15S
$$

TNZ083-085-099-222200-
SOUTHEAST TENNESSEE

CITY           SKY/WX    TMP DP  RH WIND       PRES   REMARKS
CHATTANOOGA    MOSUNNY   76  48  37 NE13      30.10F
$$

SKY/WX REPORTED AS FAIR MEANS FEW OR NO CLOUDS BELOW
12 THOUSAND FEET.



USA.gov is the U.S. government's official web portal to all federal, state and local government web resources and services.